UAL943 LPPT-KIAD

Flight info

Callsign UAL943
Flight time N/A
Altitude 38000
Route ELNUB DCT BANAL/M081F380 DCT 4430N02000W 48N030W 4830N04000W 47N050W DCT PORTI/N0462F380 N194A ALLEX/N0472F400 DCT KAYCC DCT KYLOH DCT BAF HYPER9
Aircraft B772/H-SDE2E3FGHIJ5LORVWXY/LB1D1

Departure

Time N/A
Airport Lisbon Humberto Delgado Airport (LPPT)

Arrival

Time 2026-04-30 20:20
Airport Washington Dulles International Airport (KIAD)
Time Latitude Longitude Altitude Speed Heading
2026-04-30 19:45 40.46800 -75.82208 36328 ft 407 kts 241°
2026-04-30 19:45 40.45400 -75.85418 35903 ft 403 kts 241°
2026-04-30 19:45 40.43975 -75.88566 35454 ft 399 kts 237°
2026-04-30 19:45 40.42146 -75.91270 35001 ft 395 kts 226°
2026-04-30 19:46 40.40141 -75.93708 34571 ft 392 kts 226°
2026-04-30 19:46 40.38164 -75.96152 34130 ft 389 kts 227°
2026-04-30 19:46 40.36215 -75.98590 33656 ft 386 kts 227°
2026-04-30 19:46 40.34287 -76.01019 33152 ft 383 kts 227°
2026-04-30 19:47 40.32372 -76.03439 32672 ft 380 kts 227°
2026-04-30 19:47 40.31117 -76.05026 32368 ft 378 kts 227°
2026-04-30 19:47 40.28605 -76.08202 31735 ft 373 kts 228°
2026-04-30 19:47 40.26751 -76.10546 31307 ft 369 kts 227°
2026-04-30 19:48 40.24909 -76.12871 30783 ft 367 kts 228°
2026-04-30 19:48 40.23055 -76.15214 29995 ft 374 kts 228°
2026-04-30 19:48 40.21172 -76.17591 29065 ft 378 kts 228°
2026-04-30 19:48 40.19274 -76.19984 28130 ft 380 kts 228°
2026-04-30 19:49 40.17362 -76.22391 27259 ft 382 kts 228°
2026-04-30 19:49 40.13514 -76.27224 25546 ft 384 kts 227°
2026-04-30 19:49 40.11660 -76.29730 24718 ft 382 kts 234°
2026-04-30 19:50 40.10234 -76.32620 23926 ft 378 kts 242°
2026-04-30 19:50 40.08948 -76.35619 23066 ft 378 kts 242°
2026-04-30 19:50 40.07628 -76.38590 22137 ft 378 kts 241°
2026-04-30 19:50 40.06285 -76.41529 21255 ft 377 kts 240°
2026-04-30 19:51 40.04930 -76.44459 20397 ft 376 kts 240°
2026-04-30 19:51 40.03577 -76.47379 19564 ft 375 kts 240°
2026-04-30 19:51 40.02225 -76.50294 18778 ft 375 kts 240°
2026-04-30 19:51 40.00676 -76.53633 17809 ft 374 kts 240°
2026-04-30 19:52 39.99334 -76.56528 16909 ft 372 kts 241°
2026-04-30 19:52 39.97995 -76.59414 16030 ft 371 kts 240°
2026-04-30 19:52 39.96659 -76.62290 15175 ft 371 kts 240°
2026-04-30 19:52 39.95325 -76.65156 14487 ft 367 kts 241°
2026-04-30 19:53 39.94022 -76.67949 14241 ft 353 kts 240°
2026-04-30 19:53 39.92769 -76.70632 14042 ft 340 kts 241°
2026-04-30 19:53 39.91566 -76.73208 13980 ft 324 kts 241°
2026-04-30 19:53 39.90422 -76.75658 13965 ft 310 kts 241°
2026-04-30 19:54 39.89311 -76.78039 13964 ft 307 kts 241°
2026-04-30 19:54 39.88200 -76.80421 13969 ft 308 kts 241°
2026-04-30 19:54 39.87088 -76.82804 13974 ft 308 kts 241°
2026-04-30 19:54 39.85972 -76.85191 13977 ft 309 kts 241°
2026-04-30 19:55 39.84852 -76.87583 13988 ft 310 kts 240°
2026-04-30 19:55 39.82566 -76.92455 13986 ft 312 kts 240°
2026-04-30 19:55 39.81435 -76.94866 13992 ft 312 kts 240°
2026-04-30 19:56 39.80309 -76.97262 13930 ft 309 kts 240°
2026-04-30 19:56 39.79201 -76.99615 13865 ft 299 kts 240°
2026-04-30 19:56 39.78136 -77.01875 13767 ft 287 kts 240°
2026-04-30 19:56 39.77110 -77.04051 13606 ft 278 kts 241°
2026-04-30 19:57 39.76112 -77.06168 13332 ft 272 kts 240°
2026-04-30 19:57 39.75124 -77.08265 12921 ft 272 kts 240°
2026-04-30 19:57 39.74137 -77.10357 12512 ft 272 kts 241°
2026-04-30 19:57 39.73150 -77.12452 12083 ft 272 kts 241°
2026-04-30 19:58 39.72160 -77.14548 11670 ft 272 kts 240°
2026-04-30 19:58 39.71167 -77.16648 11277 ft 272 kts 240°
2026-04-30 19:58 39.70176 -77.18741 10862 ft 272 kts 240°
2026-04-30 19:58 39.69184 -77.20832 10528 ft 269 kts 239°
2026-04-30 19:59 39.67924 -77.22599 10116 ft 270 kts 217°
2026-04-30 19:59 39.66251 -77.23656 10022 ft 266 kts 206°
2026-04-30 19:59 39.62706 -77.25430 9353 ft 266 kts 206°
2026-04-30 20:00 39.60996 -77.26285 9170 ft 263 kts 206°
2026-04-30 20:00 39.59296 -77.27139 8992 ft 262 kts 206°
2026-04-30 20:00 39.58169 -77.27709 8870 ft 263 kts 205°
2026-04-30 20:00 39.55908 -77.28850 8629 ft 264 kts 206°
2026-04-30 20:01 39.52479 -77.30582 8249 ft 265 kts 206°
2026-04-30 20:01 39.50758 -77.31453 8069 ft 265 kts 206°
2026-04-30 20:01 39.49041 -77.32321 7875 ft 265 kts 206°
2026-04-30 20:02 39.46171 -77.33771 7555 ft 263 kts 206°
2026-04-30 20:02 39.44476 -77.34626 7375 ft 261 kts 206°
2026-04-30 20:03 39.41134 -77.36271 6995 ft 255 kts 199°
2026-04-30 20:03 39.39345 -77.36504 6761 ft 264 kts 184°
2026-04-30 20:03 39.37484 -77.36427 6527 ft 271 kts 182°
2026-04-30 20:03 39.35589 -77.36315 6255 ft 272 kts 182°
2026-04-30 20:04 39.33680 -77.36222 5963 ft 270 kts 182°
2026-04-30 20:04 39.31814 -77.36155 5688 ft 266 kts 183°
2026-04-30 20:04 39.29963 -77.36104 5451 ft 267 kts 183°
2026-04-30 20:05 39.26261 -77.36010 4967 ft 265 kts 183°
2026-04-30 20:05 39.24444 -77.35962 4790 ft 264 kts 184°
2026-04-30 20:05 39.20775 -77.35874 4412 ft 263 kts 183°
2026-04-30 20:06 39.18947 -77.35829 4231 ft 263 kts 183°
2026-04-30 20:06 39.17120 -77.35782 4037 ft 262 kts 184°
2026-04-30 20:06 39.15313 -77.35752 3959 ft 257 kts 184°
2026-04-30 20:06 39.13529 -77.35745 3909 ft 258 kts 184°
2026-04-30 20:07 39.11712 -77.35744 3865 ft 264 kts 184°
2026-04-30 20:07 39.09871 -77.35747 3809 ft 266 kts 184°
2026-04-30 20:07 39.06172 -77.35738 3661 ft 264 kts 184°
2026-04-30 20:08 39.04349 -77.35734 3622 ft 262 kts 184°
2026-04-30 20:08 39.02526 -77.35731 3567 ft 262 kts 183°
2026-04-30 20:08 39.00702 -77.35725 3507 ft 261 kts 184°
2026-04-30 20:08 38.98885 -77.35720 3466 ft 262 kts 184°
2026-04-30 20:09 38.97056 -77.35715 3409 ft 263 kts 184°
2026-04-30 20:09 38.95228 -77.35715 3364 ft 264 kts 184°
2026-04-30 20:09 38.91558 -77.35702 3228 ft 261 kts 183°
2026-04-30 20:10 38.87931 -77.35746 3123 ft 261 kts 185°
2026-04-30 20:10 38.86121 -77.35789 3073 ft 260 kts 185°
2026-04-30 20:10 38.84299 -77.35786 3002 ft 263 kts 181°
2026-04-30 20:11 38.80771 -77.35532 2878 ft 244 kts 181°
2026-04-30 20:11 38.79094 -77.35392 2821 ft 239 kts 180°
2026-04-30 20:11 38.77441 -77.35260 2794 ft 237 kts 180°
2026-04-30 20:12 38.74130 -77.35006 2700 ft 240 kts 180°
2026-04-30 20:12 38.72462 -77.34870 2643 ft 240 kts 180°
2026-04-30 20:12 38.70801 -77.34742 2566 ft 236 kts 184°
2026-04-30 20:13 38.69312 -77.35242 2530 ft 217 kts 222°
2026-04-30 20:13 38.68557 -77.36704 2515 ft 188 kts 265°
2026-04-30 20:13 38.68612 -77.38288 2496 ft 173 kts 279°
2026-04-30 20:13 38.68829 -77.39781 2500 ft 170 kts 289°
2026-04-30 20:14 38.69415 -77.41107 2459 ft 175 kts 310°
2026-04-30 20:14 38.70338 -77.42091 2416 ft 171 kts 326°
2026-04-30 20:14 38.71465 -77.42550 2358 ft 174 kts 351°
2026-04-30 20:14 38.72683 -77.42641 2341 ft 178 kts 350°
2026-04-30 20:15 38.73915 -77.42773 2328 ft 178 kts 350°
2026-04-30 20:15 38.75153 -77.42906 2245 ft 179 kts 350°
2026-04-30 20:15 38.76372 -77.43031 2224 ft 174 kts 351°
2026-04-30 20:15 38.77585 -77.43152 2158 ft 175 kts 351°
2026-04-30 20:16 38.78779 -77.43267 2104 ft 171 kts 351°
2026-04-30 20:16 38.79963 -77.43385 2064 ft 172 kts 351°
2026-04-30 20:16 38.81157 -77.43507 2012 ft 170 kts 351°
2026-04-30 20:16 38.82259 -77.43620 2002 ft 146 kts 348°
2026-04-30 20:17 38.83204 -77.43724 2000 ft 130 kts 352°
2026-04-30 20:17 38.84094 -77.43753 1973 ft 128 kts 354°
2026-04-30 20:17 38.85000 -77.43751 1797 ft 131 kts 353°
2026-04-30 20:17 38.85885 -77.43738 1614 ft 123 kts 354°
2026-04-30 20:18 38.86761 -77.43725 1466 ft 128 kts 355°
2026-04-30 20:18 38.87646 -77.43715 1287 ft 128 kts 355°
2026-04-30 20:18 38.88564 -77.43700 1088 ft 131 kts 352°
2026-04-30 20:18 38.89448 -77.43687 855 ft 126 kts 353°
2026-04-30 20:19 38.90327 -77.43688 698 ft 129 kts 353°
2026-04-30 20:19 38.91230 -77.43653 549 ft 126 kts 354°
2026-04-30 20:19 38.92082 -77.43632 431 ft 121 kts 352°
2026-04-30 20:19 38.92932 -77.43639 308 ft 117 kts 354°
2026-04-30 20:20 38.93578 -77.43634 305 ft 61 kts
2026-04-30 20:20 38.93875 -77.43641 307 ft 36 kts 346°
2026-04-30 20:20 38.94071 -77.43764 308 ft 25 kts 328°
2026-04-30 20:20 38.94222 -77.43856 307 ft 24 kts 348°
2026-04-30 20:21 38.94341 -77.43864 307 ft 16 kts
2026-04-30 20:21 38.94450 -77.43860 306 ft 16 kts 359°
2026-04-30 20:21 38.94554 -77.43861 306 ft 12 kts
2026-04-30 20:21 38.94629 -77.43885 307 ft 11 kts 311°
2026-04-30 20:22 38.94639 -77.43920 308 ft 0 kts 282°
2026-04-30 20:22 38.94643 -77.43943 308 ft 9 kts 279°
2026-04-30 20:22 38.94648 -77.44011 305 ft 7 kts 273°
2026-04-30 20:23 38.94649 -77.44085 306 ft 9 kts 269°
2026-04-30 20:23 38.94649 -77.44163 306 ft 9 kts 270°
2026-04-30 20:23 38.94650 -77.44237 307 ft 6 kts 270°
2026-04-30 20:23 38.94646 -77.44264 305 ft 3 kts 252°
2026-04-30 20:24 38.94634 -77.44285 308 ft 3 kts 227°
2026-04-30 20:24 38.94617 -77.44300 306 ft 2 kts 213°
2026-04-30 20:24 38.94604 -77.44309 308 ft 1 kts 206°
2026-04-30 20:24 38.94598 -77.44312 307 ft 1 kts 205°
2026-04-30 20:25 38.94590 -77.44317 306 ft 1 kts 205°
2026-04-30 20:25 38.94585 -77.44320 306 ft 1 kts 204°
2026-04-30 20:26 38.94583 -77.44321 305 ft 0 kts 204°